Theta_e
329 329 337 337 335 336 338 337 334 328 328 328 327 326 322 322 323 330 330 327 324 326 328 327 327 326 322 317 315 312 313 317 316 318 317 324 319 318 320 318 318 321 321 316 313 309 326 319 315
329 331 334 338 337 340 338 334 334 328 328 328 327 326 324 323 324 327 326 325 325 326 326 326 324 322 322 321 319 314 312 319 324 319 320 319 318 320 319 322 324 324 324 322 320 313 314 325 322
330 335 336 332 335 338 337 335 333 328 328 328 327 326 326 324 325 326 326 323 324 324 324 326 325 323 322 320 319 316 316 320 320 321 319 319 319 321 321 319 319 323 325 324 325 326 318 320 326
333 336 337 331 332 332 334 333 329 328 328 328 326 325 326 325 323 323 324 318 324 324 326 326 323 321 321 321 320 315 314 317 318 322 320 320 319 320 319 321 321 320 321 326 328 327 327 317 324
333 334 330 333 333 334 333 333 332 326 327 326 326 326 325 324 324 323 318 320 323 323 323 323 323 321 318 319 318 318 316 314 316 319 322 321 320 320 320 317 319 320 322 324 325 326 326 322 323
333 331 329 332 331 331 331 332 332 328 328 325 325 327 325 324 323 322 320 321 322 323 323 323 321 319 321 320 322 323 325 325 324 321 317 315 316 317 319 320 321 321 320 324 325 327 326 324 322
330 329 330 331 332 331 332 332 331 330 328 325 326 326 326 325 325 324 324 323 323 322 322 322 323 323 322 322 323 327 327 326 324 322 322 321 321 320 318 317 320 324 324 320 324 325 327 322 322
331 328 330 330 330 330 330 332 332 330 327 327 327 324 327 326 325 323 323 322 322 323 323 323 323 322 322 323 322 326 327 326 326 325 323 323 321 318 317 317 319 320 322 322 324 324 326 323 320
332 328 330 330 330 329 328 326 328 329 329 329 327 325 326 326 325 324 323 323 323 323 323 323 323 322 321 321 323 327 326 326 327 326 324 322 322 318 318 321 323 323 323 321 322 324 326 323 315
330 327 330 329 329 328 327 326 327 328 327 329 325 325 326 326 325 323 323 323 323 324 323 323 323 321 321 318 326 328 327 326 325 324 325 322 322 318 320 322 322 324 324 324 324 324 325 322 316
329 328 328 328 330 330 327 325 326 327 327 327 325 325 325 325 323 323 323 323 324 324 324 323 323 322 320 321 324 324 325 327 326 327 325 322 322 320 323 322 322 322 322 322 324 324 323 314 311
329 328 329 329 329 330 327 328 326 327 327 326 325 325 325 324 323 323 323 324 323 324 324 324 323 325 321 324 323 321 324 327 327 325 324 323 323 321 322 322 322 322 322 322 322 324 318 322 316
330 328 329 330 330 329 329 327 326 327 327 326 324 324 324 325 324 323 324 324 324 325 325 324 323 323 322 324 326 326 326 325 324 324 324 325 325 323 322 321 320 321 322 323 322 324 320 323 322
330 329 329 330 330 329 328 327 326 327 327 326 326 324 323 323 325 324 324 324 325 325 325 324 325 323 327 327 328 327 327 326 324 324 324 326 325 325 322 322 321 321 322 323 323 324 323 324 319
326 326 327 328 328 326 328 326 325 328 327 326 326 325 323 324 323 323 324 324 325 325 325 323 324 327 328 327 328 325 328 328 326 326 324 327 326 325 322 323 323 322 322 322 322 324 325 323 323
323 324 327 326 326 327 326 326 325 328 327 326 327 326 325 325 324 323 324 325 325 326 326 324 323 324 327 329 326 328 328 327 326 326 325 324 325 323 323 323 324 322 322 321 322 324 325 323 324
322 324 325 326 327 327 326 327 326 327 327 327 327 326 326 326 325 324 325 325 325 326 325 323 323 326 329 326 329 329 328 327 326 327 326 325 324 322 322 323 323 322 322 321 323 325 325 324 326
322 324 326 327 327 326 327 326 327 328 327 327 327 328 328 325 325 325 325 325 325 326 325 323 321 327 328 327 328 329 329 328 326 325 326 325 324 322 323 322 324 321 322 323 324 325 325 326 324
323 325 326 327 327 326 329 329 330 329 329 328 329 328 328 325 325 325 325 325 325 327 326 322 327 328 328 329 327 326 327 327 327 326 326 326 325 322 324 324 324 323 322 323 324 325 325 325 324
323 323 324 326 327 329 329 329 329 328 327 328 328 328 328 328 325 325 325 325 326 326 325 324 327 330 330 329 330 329 328 328 326 326 326 326 325 324 325 325 324 323 321 324 325 325 321 325 326
325 324 324 326 327 328 328 329 329 329 328 329 328 328 328 327 326 325 325 326 327 327 326 322 329 328 333 330 327 328 328 326 326 325 326 326 326 326 325 324 324 323 324 320 324 325 324 325 327
324 325 325 327 327 327 328 327 328 327 326 326 327 326 328 326 326 326 326 326 327 327 326 326 328 330 332 330 328 327 327 327 326 326 326 326 325 325 326 325 324 324 324 322 323 324 324 325 327
325 326 326 327 327 327 327 325 325 327 327 326 325 327 328 327 327 326 326 327 327 328 325 326 329 330 331 330 329 327 329 328 327 325 325 326 325 324 325 325 323 323 324 324 324 325 325 327 326
325 325 325 326 327 329 327 327 326 327 328 327 327 330 329 328 327 327 327 327 328 327 324 325 330 329 331 330 329 328 329 325 325 326 327 327 326 326 327 326 325 324 324 325 326 326 325 326 324
324 323 326 327 328 327 327 326 324 326 326 325 326 330 329 329 328 327 327 328 328 326 324 327 330 329 330 330 329 328 325 325 325 327 328 327 327 326 327 326 326 324 324 325 325 325 325 324 323
319 324 325 328 329 327 326 329 328 327 326 326 331 330 330 329 328 327 328 328 328 325 324 326 329 329 329 329 328 327 324 324 325 327 328 326 328 327 327 327 326 325 325 325 325 325 325 324 324
322 325 324 327 328 327 327 330 328 326 324 325 331 330 329 329 328 327 328 328 327 325 324 326 328 328 329 328 327 328 326 325 325 324 326 327 327 327 327 327 326 327 326 326 325 325 326 326 326
321 324 327 325 327 328 327 329 331 326 324 325 329 331 330 328 328 328 328 327 325 324 324 325 326 327 327 328 328 328 329 327 327 326 325 326 326 325 327 327 326 326 326 326 325 325 326 327 328
321 323 326 324 323 326 327 326 326 325 324 330 329 331 330 328 328 328 328 326 324 324 324 325 326 326 326 327 327 328 328 330 326 325 324 326 327 325 325 326 326 325 325 325 325 325 327 328 326
322 323 325 327 329 324 324 327 326 326 329 330 331 331 329 328 328 328 327 326 323 324 325 324 325 325 326 327 326 328 329 329 327 325 326 326 326 326 327 327 326 324 324 325 327 327 328 325 326
Wind_Speed
7 5 1 3 2 1 5 10 6 9 4 15 12 8 10 11 5 4 16 9 4 6 8 9 9 9 9 11 13 12 11 13 13 13 13 13 13 12 13 14 14 14 12 12 11 11 11 10 12
6 5 5 6 3 2 6 8 9 3 13 9 9 9 16 4 17 18 17 9 6 5 8 11 10 11 12 15 16 16 14 13 14 15 15 16 18 16 14 14 13 13 13 13 12 12 14 12 11
8 4 5 3 3 8 5 3 14 10 8 7 5 9 8 13 19 24 15 11 7 5 9 10 7 8 12 15 18 18 15 14 17 18 18 19 19 19 18 18 19 17 17 16 14 13 14 15 12
6 4 8 1 11 15 4 7 4 2 3 11 11 7 9 9 17 13 12 4 7 7 6 9 7 8 12 16 19 19 18 18 20 21 20 21 21 19 20 20 20 21 20 18 17 14 14 15 15
5 6 4 5 13 16 7 11 16 7 10 9 11 7 11 14 15 14 9 11 12 11 11 13 13 15 17 18 17 15 16 18 20 21 21 22 21 21 22 22 22 22 22 20 20 19 16 19 17
5 4 2 7 13 11 4 12 10 7 12 8 10 12 10 16 16 12 6 9 14 13 15 16 18 14 18 16 17 19 16 15 16 19 22 23 23 23 23 24 24 25 25 23 21 21 17 18 20
6 2 7 12 16 13 0 20 5 18 7 5 5 3 15 18 14 12 13 12 11 7 10 10 12 10 13 12 16 16 18 17 18 17 18 20 22 23 24 25 24 25 26 27 24 23 21 19 22
14 2 11 14 12 17 5 4 14 14 8 5 6 5 8 22 19 14 15 8 2 5 7 7 6 10 15 16 19 18 16 18 17 17 16 15 17 18 17 16 15 17 22 21 22 24 22 18 24
23 6 12 17 16 13 19 6 12 17 3 11 13 12 15 27 20 13 11 7 7 7 11 12 10 16 20 22 16 13 13 16 16 20 23 23 22 16 13 11 13 13 14 19 21 23 23 19 23
15 6 19 16 17 14 16 13 14 13 18 8 17 16 17 19 16 12 14 10 13 18 14 11 14 20 23 18 8 12 13 16 20 23 18 23 19 17 13 11 12 15 16 17 18 20 22 21 23
23 16 16 21 27 30 12 15 21 16 5 4 20 19 20 18 14 14 14 16 18 16 14 15 16 21 22 20 14 13 16 16 19 19 22 12 14 12 10 11 9 12 17 16 17 20 21 20 22
18 29 28 30 31 27 6 20 21 18 6 5 6 10 17 18 19 17 14 10 13 12 11 13 18 18 20 18 15 13 14 14 18 23 16 14 12 13 13 11 12 13 13 13 15 22 22 20 17
21 20 32 33 30 18 17 18 21 15 8 4 3 6 12 14 19 18 14 15 14 14 11 13 16 18 17 18 16 15 14 15 16 11 11 14 15 16 18 14 13 13 14 15 14 23 22 17 15
28 26 26 30 26 16 17 20 17 17 14 11 11 13 15 17 19 20 19 18 18 13 11 15 13 14 13 17 15 18 14 16 14 12 12 13 17 16 15 13 11 11 15 17 15 19 23 19 20
28 21 22 22 20 14 25 10 8 18 16 19 18 18 18 19 21 22 23 24 23 18 15 13 11 7 9 15 19 20 17 17 16 13 13 12 14 16 13 11 11 10 13 22 16 16 20 19 22
18 19 19 10 11 24 16 14 11 15 14 20 25 20 24 25 25 22 24 25 21 17 12 11 12 9 11 14 14 13 14 15 16 15 13 15 16 16 13 10 8 7 12 20 18 17 22 21 20
10 13 16 14 18 21 12 18 14 21 18 26 19 24 28 23 25 25 25 22 19 15 10 10 11 7 10 14 12 12 10 12 14 12 13 14 15 16 14 10 6 4 12 18 20 19 21 21 18
12 10 11 17 21 19 16 11 7 23 25 26 29 25 25 22 30 28 24 21 18 13 10 9 8 8 11 11 13 11 11 11 14 12 12 10 12 11 11 8 5 7 13 18 19 19 21 17 15
16 15 19 22 22 19 8 6 8 9 19 12 18 21 16 26 32 28 24 21 16 11 8 7 4 9 9 10 9 8 11 12 12 13 12 10 9 9 6 7 6 11 14 20 21 19 20 19 19
18 20 23 22 17 8 18 22 8 9 12 18 25 27 15 22 33 29 26 21 17 12 7 5 6 7 5 7 9 11 12 13 11 12 11 7 7 8 5 5 8 12 13 21 23 21 21 22 22
19 21 21 18 21 14 5 5 6 8 9 19 27 25 18 33 36 32 27 23 17 11 8 6 7 5 4 9 10 12 9 11 8 10 10 3 5 6 7 7 8 8 13 20 23 20 24 25 23
19 18 21 22 17 6 2 5 3 5 9 9 13 18 33 36 33 32 29 25 17 10 9 7 9 2 2 7 12 12 11 13 7 11 11 2 3 5 6 9 10 10 14 18 20 24 26 27 25
21 16 17 20 15 5 6 3 5 3 8 8 3 7 26 35 32 33 29 21 14 10 11 10 6 2 2 7 13 14 14 12 3 8 5 4 1 5 7 9 11 11 16 18 19 23 25 22 27
22 13 17 18 14 11 7 8 7 5 5 1 6 23 33 32 31 29 23 18 14 13 12 8 6 2 3 3 9 13 11 6 5 4 4 3 2 5 5 11 11 13 15 18 21 23 23 23 24
17 14 10 5 5 6 7 5 8 8 7 8 10 24 29 30 32 29 26 21 19 17 12 10 8 1 4 3 7 12 9 9 6 7 5 5 4 6 7 9 13 16 17 18 20 21 21 22 25
20 16 10 7 4 5 7 5 8 11 9 20 30 29 31 34 32 30 25 23 21 16 15 8 10 5 6 1 5 9 10 7 7 7 8 7 7 9 9 9 13 14 17 18 21 20 18 22 21
14 18 14 6 3 4 5 5 7 6 8 10 19 30 32 33 31 29 26 23 20 17 15 11 11 6 6 2 3 7 6 7 8 9 7 7 9 11 9 11 12 16 16 19 20 18 19 23 22
27 7 8 2 8 6 5 4 6 9 9 9 10 20 28 32 30 28 26 23 19 18 15 11 9 9 6 1 4 5 6 7 8 6 9 10 12 12 12 12 15 16 15 19 21 22 21 24 21
14 16 7 7 6 6 1 6 8 14 9 14 11 28 31 33 31 29 27 23 19 19 16 14 11 9 8 6 6 2 6 6 8 8 10 9 11 13 15 14 16 19 19 20 24 25 23 25 24
18 14 8 8 5 4 6 5 7 9 11 15 18 29 31 31 29 28 28 25 20 19 16 14 12 12 8 7 7 5 3 4 8 9 13 11 8 10 12 15 18 18 20 22 22 23 28 31 25
Wind_Direction
183 160 158 264 15 169 262 280 343 63 65 79 75 76 86 87 95 180 156 188 203 201 222 254 275 295 309 318 318 309 290 282 283 285 283 279 288 284 280 282 285 294 293 278 268 244 241 241 242
184 180 291 275 176 299 278 311 268 106 136 118 133 131 100 66 111 138 147 164 195 219 262 276 291 298 301 305 307 303 290 283 276 278 275 279 287 283 279 278 276 276 284 284 269 255 234 236 245
202 200 266 204 211 234 247 228 314 8 113 129 109 116 110 134 130 151 164 164 212 266 284 275 265 267 288 298 301 300 293 282 277 274 276 282 285 282 283 279 275 273 274 276 270 258 246 230 230
183 264 250 235 259 271 234 296 15 22 4 166 124 115 100 157 153 159 159 188 160 216 230 230 245 274 296 302 301 295 282 271 269 269 274 278 279 276 275 273 268 270 266 267 266 254 248 239 228
230 261 229 260 266 264 267 349 8 353 325 129 155 108 105 138 154 161 171 167 189 211 233 247 263 293 306 309 306 309 296 280 274 272 271 272 270 269 269 269 268 265 266 262 258 265 244 240 228
246 246 295 276 281 303 255 39 296 330 319 82 54 108 143 159 171 166 172 172 189 217 241 271 271 281 304 310 311 313 311 304 300 289 278 275 275 276 276 273 267 263 259 258 256 248 246 235 229
226 286 265 279 289 309 74 27 312 283 240 83 97 81 144 166 166 173 185 196 203 229 267 271 274 305 296 294 303 303 306 308 311 307 286 278 278 278 277 273 265 259 256 253 249 245 240 237 228
241 238 280 279 284 286 298 203 197 257 131 162 179 144 179 175 178 184 201 214 311 277 237 233 249 276 282 290 300 301 309 309 309 309 309 300 292 286 278 271 270 262 252 252 244 241 231 239 225
246 254 262 269 277 284 330 11 305 334 228 281 204 167 169 174 189 193 180 212 251 230 193 198 248 277 285 296 301 299 300 305 298 300 309 313 307 296 279 279 268 270 258 246 240 234 224 230 225
234 232 249 260 273 292 305 329 332 329 304 281 121 142 168 184 196 187 181 196 218 169 186 243 269 293 298 308 284 289 299 293 290 297 301 302 301 293 288 284 266 253 257 257 231 227 218 225 222
241 241 252 261 264 275 292 315 300 293 289 15 163 176 187 185 192 190 209 228 211 207 240 258 282 295 314 315 308 283 264 279 286 285 294 292 311 301 292 287 285 263 255 249 240 218 212 216 216
244 245 249 255 262 252 280 296 285 278 260 41 142 184 194 192 196 204 203 202 215 212 227 261 290 302 311 319 321 303 265 264 280 293 292 298 307 315 294 296 286 260 257 248 241 217 208 211 214
241 247 256 263 271 252 280 266 267 266 284 270 147 180 198 212 210 215 208 218 213 220 248 274 293 307 320 324 336 329 312 282 286 285 285 292 292 312 308 292 288 267 244 237 233 210 206 204 203
252 255 259 261 272 259 257 261 271 253 253 231 230 217 214 218 211 205 198 215 228 239 259 283 292 320 318 328 319 313 317 315 287 278 273 284 279 292 295 291 290 270 239 225 219 210 208 205 186
269 273 275 270 268 264 258 252 258 257 242 254 242 221 222 212 218 217 216 221 227 237 261 279 301 308 300 305 307 304 309 310 303 285 278 279 271 276 283 291 286 283 236 212 211 206 202 192 181
282 276 260 259 269 266 245 252 237 254 243 253 243 212 219 229 220 214 210 211 221 227 249 267 290 288 285 302 312 315 307 310 307 299 285 264 266 277 278 281 280 276 213 202 195 193 189 188 192
261 256 257 263 254 263 243 254 214 228 242 263 232 230 241 234 207 198 196 205 215 220 249 257 281 288 293 309 326 328 332 330 320 309 295 272 261 259 264 265 270 224 185 185 189 185 188 195 192
236 259 250 256 254 259 259 242 203 213 225 242 256 243 243 208 189 185 192 201 210 222 253 262 287 298 307 319 331 318 329 336 345 334 310 288 260 244 246 257 248 191 182 184 188 193 192 192 190
237 245 248 251 247 252 321 285 216 225 257 240 268 280 255 203 178 182 192 196 205 215 243 263 276 285 312 335 345 343 333 329 333 349 329 311 245 217 204 241 216 189 186 193 181 183 193 185 172
226 248 260 272 276 126 229 250 236 223 237 250 255 258 253 170 167 178 186 195 202 213 228 230 264 274 342 348 344 347 334 322 335 342 354 356 173 185 185 180 176 176 179 185 190 179 175 165 169
232 230 250 260 276 284 244 233 237 253 264 288 256 247 179 170 170 175 182 191 191 203 213 238 225 275 329 340 343 353 336 340 329 354 355 24 140 169 176 181 161 160 186 188 190 185 180 169 175
240 228 240 254 265 256 266 270 289 291 294 298 266 178 165 165 173 178 182 180 189 198 210 197 235 209 289 345 351 358 356 348 327 338 348 74 209 184 174 179 159 176 177 180 186 182 185 183 167
239 225 233 242 253 252 290 324 259 259 290 285 150 254 171 168 174 177 176 177 181 189 199 205 233 200 53 336 344 351 347 348 338 339 24 55 195 195 196 171 166 172 169 170 177 177 185 185 176
230 229 233 243 246 246 226 212 256 234 232 141 129 133 153 161 170 170 171 172 170 185 198 208 212 218 129 309 340 351 352 29 40 37 32 40 68 143 171 176 167 159 165 165 170 178 182 186 183
220 220 236 260 222 203 217 271 239 259 202 166 139 139 150 161 163 164 167 168 171 186 203 191 201 195 126 335 351 11 45 85 63 29 34 41 107 130 141 158 169 164 169 171 171 175 181 183 180
225 208 213 214 178 226 245 230 254 222 155 127 133 146 153 155 163 166 169 171 177 190 193 204 193 169 148 243 359 43 89 55 50 46 50 61 96 116 119 127 152 168 173 171 175 178 177 172 171
222 211 202 207 205 198 214 250 339 113 127 121 120 137 148 158 164 165 169 174 181 188 196 186 182 167 180 282 54 60 62 57 46 33 47 71 103 119 113 125 132 140 163 170 171 168 165 164 172
215 184 191 179 195 246 281 283 224 157 163 140 127 141 151 158 162 166 171 176 183 189 191 182 187 181 190 140 101 48 36 58 53 39 59 90 109 112 125 122 131 136 151 151 154 162 161 165 169
218 218 184 149 153 176 220 277 232 176 164 149 147 149 156 163 166 168 172 176 182 189 192 184 189 190 179 169 155 108 72 54 56 64 71 101 112 112 123 121 131 136 145 153 155 162 161 150 147
215 207 169 185 213 176 171 255 159 153 146 144 150 155 162 165 167 172 173 175 182 189 194 191 191 189 189 180 151 142 122 91 87 81 76 88 106 115 117 125 134 147 146 149 155 162 162 156 151